Weather History for EDDG - February, 2013

Change the Weather History Date:

Thursday, February 14, 2013

  Actual Average Record
Temperature  
Mean Temperature 30 °F -  
Max Temperature 35 °F 45 °F 59 °F (1998)
Min Temperature 24 °F 33 °F 19 °F (2003)
Degree Days  
Heating Degree Days 36    
Moisture  
Dew Point 23 °F    
Average Humidity 73    
Maximum Humidity 100    
Minimum Humidity 43    
Precipitation  
Precipitation 0.04 in - - ()
Sea Level Pressure  
Sea Level Pressure 30.10 in    
Wind  
Wind Speed 5 mph ()    
Max Wind Speed 13 mph    
Max Gust Speed -    
Visibility 5.5 miles    
Events Snow    
Averages and records for this station are not official NWS values.
T = Trace of Precipitation, MM = Missing Value Source: Averaged Metar Reports

Daily Weather History Graph

Daily Weather History Graph

Search for Another Location

Airport or City:

Trip Planner

Search our weather history database for the weather conditions in past years. The results will help you decide how hot, cold, wet, or windy it might be!

Date:

Astronomy

Feb. 14, 2013 Rise Set
Actual Time 7:46 AM CET 5:41 PM CET
Civil Twilight 7:11 AM CET 6:16 PM CET
Nautical Twilight 6:31 AM CET 6:56 PM CET
Astronomical Twilight 5:52 AM CET 7:35 PM CET
Moon 8:59 AM CET (2/14) 11:12 PM CET (2/14)
Length of Visible Light 11h 05m
Length of Day
9h 54m
Waxing Crescent, 19% of the Moon is Illuminated
Feb 14
Waxing Crescent
Feb 17
First Quarter
Feb 25
Full
Mar 4
Last Quarter
Mar 11
New

Hourly Weather History & Observations

Time (CET) Temp. Windchill Dew Point Humidity Pressure Visibility Wind Dir Wind Speed Gust Speed Precip Events Conditions
12:00 AM 27 °F - 23 °F 79% 30.33 in 6 mi ESE 4.5 mph - -  
12:20 AM 26.6 °F 22.6 °F 23.0 °F 86% 30.30 in - ESE 3.5 mph - N/A   Clear
12:50 AM 26.6 °F 22.6 °F 23.0 °F 86% 30.30 in - ESE 3.5 mph - N/A   Clear
1:00 AM 26 °F - 23 °F 83% 30.32 in 6 mi SE 4.5 mph - -  
1:20 AM 26.6 °F 21.2 °F 23.0 °F 86% 30.27 in - SE 4.6 mph - N/A   Clear
1:50 AM 24.8 °F 20.5 °F 23.0 °F 93% 30.27 in - ESE 3.5 mph - N/A   Clear
2:20 AM 24.8 °F 20.5 °F 21.2 °F 86% 30.27 in - ESE 3.5 mph - N/A   Clear
2:50 AM 24.8 °F - 21.2 °F 86% 30.27 in - SE 2.3 mph - N/A   Clear
3:20 AM 24.8 °F 20.5 °F 19.4 °F 80% 30.27 in - SE 3.5 mph - N/A   Clear
3:50 AM 24.8 °F 20.5 °F 19.4 °F 80% 30.24 in - SE 3.5 mph - N/A   Clear
4:00 AM 25 °F - 19 °F 68% 30.28 in 9 mi SE 4.5 mph - -  
4:20 AM 24.8 °F 19.1 °F 19.4 °F 80% 30.24 in - SE 4.6 mph - N/A   Clear
4:50 AM 24.8 °F 19.1 °F 19.4 °F 80% 30.24 in - ESE 4.6 mph - N/A   Clear
5:00 AM 25 °F - 18 °F 65% 30.26 in 12 mi SE 4.5 mph - -  
5:20 AM 24.8 °F 17.9 °F 19.4 °F 80% 30.21 in - ESE 5.8 mph - N/A   Clear
5:50 AM 24.8 °F 19.1 °F 19.4 °F 80% 30.21 in - ESE 4.6 mph - N/A   Clear
6:00 AM 25 °F - 18 °F 65% 30.25 in 12 mi SE 4.5 mph - -  
6:20 AM 24.8 °F 17.9 °F 19.4 °F 80% 30.21 in - ESE 5.8 mph - N/A   Clear
6:50 AM 24.8 °F 16.9 °F 19.4 °F 80% 30.18 in - SE 6.9 mph - N/A   Clear
7:00 AM 25 °F - 18 °F 66% 30.22 in 12 mi SE 6.7 mph - -  
7:20 AM 24.8 °F 16.9 °F 19.4 °F 80% 30.18 in - SE 6.9 mph - N/A   Clear
7:50 AM 24.8 °F 17.9 °F 19.4 °F 80% 30.18 in 5.0 mi ESE 5.8 mph - N/A   Unknown
8:00 AM 25 °F - 18 °F 66% 30.21 in 5 mi SE 6.7 mph - -   Clear
8:20 AM 24.8 °F 17.9 °F 19.4 °F 80% 30.18 in 5.6 mi ESE 5.8 mph - N/A   Unknown
8:50 AM 26.6 °F 20.0 °F 19.4 °F 74% 30.15 in 5.6 mi ESE 5.8 mph - N/A   Unknown
9:00 AM 27 °F - 19 °F 62% 30.20 in 6 mi SE 6.7 mph - -   Clear
9:20 AM 28.4 °F 20.4 °F 21.2 °F 74% 30.15 in 5.6 mi ESE 8.1 mph - N/A   Unknown
9:50 AM 28.4 °F 20.4 °F 21.2 °F 74% 30.12 in 5.6 mi SE 8.1 mph - N/A   Unknown
10:00 AM 29 °F - 20 °F 58% 30.17 in 6 mi SE 6.7 mph - -   Clear
10:20 AM 28.4 °F 20.4 °F 21.2 °F 74% 30.12 in 5.6 mi SE 8.1 mph - N/A   Unknown
10:50 AM 30.2 °F 21.9 °F 21.2 °F 69% 30.12 in 5.6 mi SE 9.2 mph - N/A   Unknown
11:00 AM 30 °F - 20 °F 56% 30.15 in 6 mi SE 11.2 mph - -   Scattered Clouds
11:20 AM 30.2 °F 22.6 °F 21.2 °F 69% 30.09 in 5.6 mi SE 8.1 mph - N/A   Unknown
11:50 AM 32.0 °F 24.2 °F 21.2 °F 64% 30.09 in 5.6 mi SE 9.2 mph - N/A   Unknown
12:00 PM 31 °F - 21 °F 54% 30.12 in 6 mi SE 11.2 mph - -   Scattered Clouds
12:20 PM 32.0 °F 25.6 °F 21.2 °F 64% 30.09 in 5.6 mi SE 6.9 mph - N/A   Unknown
12:50 PM 32.0 °F 25.6 °F 21.2 °F 64% 30.06 in - SE 6.9 mph - N/A   Clear
1:00 PM 33 °F - 22 °F 51% 30.09 in 6 mi SE 8.9 mph - -   Mostly Cloudy
1:20 PM 32.0 °F 24.2 °F 21.2 °F 64% 30.06 in - SE 9.2 mph - N/A   Clear
1:50 PM 33.8 °F 27.7 °F 23.0 °F 65% 30.04 in - SE 6.9 mph - N/A   Clear
2:00 PM 33 °F - 22 °F 52% 30.06 in 7 mi SE 6.7 mph - -   Mostly Cloudy
2:20 PM 33.8 °F 27.7 °F 23.0 °F 65% 30.01 in - SE 6.9 mph - N/A   Clear
2:50 PM 33.8 °F 27.7 °F 21.2 °F 60% 30.01 in - SE 6.9 mph - N/A   Clear
3:00 PM 34 °F - 22 °F 48% 30.03 in 7 mi SE 8.9 mph - -   Mostly Cloudy
3:20 PM 35.6 °F 29.9 °F 21.2 °F 56% 29.98 in - SE 6.9 mph - N/A   Clear
3:50 PM 35.6 °F 30.7 °F 23.0 °F 60% 29.98 in - SE 5.8 mph - N/A   Clear
4:20 PM 35.6 °F 30.7 °F 23.0 °F 60% 29.98 in - SE 5.8 mph - N/A   Clear
4:50 PM 35.6 °F 30.7 °F 23.0 °F 60% 29.98 in - SE 5.8 mph - N/A   Clear
5:00 PM 36 °F - 22 °F 43% 29.99 in 7 mi SE 6.7 mph - -   Mostly Cloudy
5:20 PM 35.6 °F 29.2 °F 23.0 °F 60% 29.95 in - ESE 8.1 mph - N/A   Clear
5:50 PM 35.6 °F 30.7 °F 23.0 °F 60% 29.95 in 5.0 mi ESE 5.8 mph - N/A   Unknown
6:20 PM 35.6 °F 29.9 °F 23.0 °F 60% 29.95 in 5.6 mi SE 6.9 mph - N/A   Unknown
6:50 PM 35.6 °F 30.7 °F 23.0 °F 60% 29.95 in 6.2 mi SE 5.8 mph - N/A   Mostly Cloudy
7:00 PM 35 °F - 22 °F 48% 29.96 in 6 mi SE 8.9 mph - -   Partly Cloudy
7:20 PM 35.6 °F 28.6 °F 23.0 °F 60% 29.95 in 5.6 mi SSE 9.2 mph - N/A Snow Light Snow
7:50 PM 33.8 °F 26.4 °F 26.6 °F 75% 29.95 in 5.0 mi South 9.2 mph - N/A Snow Light Snow
8:00 PM 33 °F - 26 °F 65% 29.97 in 5 mi South 13.4 mph - - Snow Light Snow
8:20 PM 32.0 °F 25.6 °F 28.4 °F 87% 29.95 in 3.7 mi South 6.9 mph - N/A Snow Light Snow
8:50 PM 30.2 °F 23.4 °F 30.2 °F 100% 29.95 in 2.5 mi SSE 6.9 mph - N/A Snow Light Snow
9:00 PM 31 °F - 29 °F 90% 29.97 in 2 mi SSE 8.9 mph - - Snow Light Snow
9:20 PM 30.2 °F 24.3 °F 30.2 °F 100% 29.95 in 1.6 mi SE 5.8 mph - N/A Snow Snow
9:50 PM 30.2 °F 25.4 °F 30.2 °F 100% 29.95 in 1.2 mi SE 4.6 mph - N/A Snow Snow
10:00 PM 31 °F - 30 °F 93% 29.97 in 1 mi SSE 6.7 mph - - Snow Snow
10:20 PM 30.2 °F 24.3 °F 30.2 °F 100% 29.95 in 2.2 mi SE 5.8 mph - N/A Snow Light Snow
10:50 PM 30.2 °F 25.4 °F 30.2 °F 100% 29.95 in 2.2 mi SE 4.6 mph - N/A Snow Light Snow
11:20 PM 30.2 °F 24.3 °F 30.2 °F 100% 29.95 in 3.1 mi SSE 5.8 mph - N/A   Mostly Cloudy
11:50 PM 30.2 °F 25.4 °F 30.2 °F 100% 29.95 in 3.1 mi SSE 4.6 mph - N/A   Mostly Cloudy